This is the latest recevied weather packets stored in our database for station/object NM5PB. If no packets are shown the sender has not sent any weather packets the latest 10 day(s).
| Time | Temp. | Humidity | Pressure | Rain* | Wind** | Luminosity | Snow |
|---|---|---|---|---|---|---|---|
| 1777414264 | 15.56° C | 49% | - | 0 mm | - | - | - |
| 1777413664 | 15.56° C | 48% | - | 0 mm | - | - | - |
| 1777413064 | 15° C | 51% | - | 0 mm | - | - | - |
| 1777412464 | 15° C | 51% | - | 0 mm | - | - | - |
| 1777411864 | 15° C | 51% | - | 0 mm | - | - | - |
| 1777411264 | 15° C | 51% | - | 0 mm | - | - | - |
| 1777410664 | 15.56° C | 50% | - | 0 mm | - | - | - |
| 1777410064 | 16.11° C | 50% | - | 0 mm | - | - | - |
| 1777409464 | 16.11° C | 49% | - | 0 mm | - | - | - |
| 1777408864 | 15.56° C | 51% | - | 0 mm | - | - | - |
| 1777408264 | 15° C | 51% | - | 0 mm | - | - | - |
| 1777407664 | 15° C | 51% | - | 0 mm | - | - | - |
| 1777407064 | 15.56° C | 52% | - | 0 mm | - | - | - |
| 1777406464 | 15.56° C | 52% | - | 0 mm | - | - | - |
| 1777405864 | 15.56° C | 50% | - | 0 mm | - | - | - |
| 1777405264 | 15.56° C | 52% | - | 0 mm | - | - | - |
| 1777404664 | 15.56° C | 53% | - | 0 mm | - | - | - |
| 1777404064 | 16.11° C | 53% | - | 0 mm | - | - | - |
| 1777403464 | 15° C | 52% | - | 0 mm | - | - | - |
| 1777402864 | 15° C | 55% | - | 0 mm | - | - | - |
| 1777402264 | 15.56° C | 50% | - | 0 mm | - | - | - |
| 1777401664 | 15.56° C | 51% | - | 0 mm | - | - | - |
| 1777401064 | 15.56° C | 54% | - | 0 mm | - | - | - |
| 1777400464 | 15.56° C | 54% | - | 0 mm | - | - | - |
| 1777399864 | 15.56° C | 55% | - | 0 mm | - | - | - |
* Rain latest hour (hover to see other rain measurements)
** Current wind speed in m/s (hover to see current wind gust speed)